This demonstration page uses our WeatherBlox Daily Observations layout. Learn more.

Left ArrowRight Arrow

Hourly Observations for April 13, 2015

Temp ( °F °C ) Dew Point ( °F °C ) Humidity (%) Winds ( mph kmh ) Pressure ( in mb ) Visibility ( mi km ) Precip ( " mm )
12:53 am 00:53 Clear 35 1.7 19 -7.2 52 52 SW 16 26 30.09 1019 10 16 N/A
1:53 am 01:53 Clear 34 1.1 19 -7.2 54 54 WSW 14 22 30.09 1019 10 16 N/A
2:53 am 02:53 Clear 33 0.6 20 -6.7 58 58 SW 14 22 30.10 1019 10 16 N/A
3:53 am 03:53 Clear 29 -1.7 19 -7.2 66 66 SW 10 17 30.12 1020 10 16 N/A
4:53 am 04:53 Clear 28 -2.2 18 -7.8 66 66 WSW 7 11 30.14 1021 10 16 N/A
5:53 am 05:53 Clear 24 -4.4 17 -8.3 75 75 WNW 6 9 30.15 1021 10 16 N/A
6:53 am 06:53 Sunny 23 -5 17 -8.3 78 78 WSW 7 11 30.16 1021 10 16 N/A
7:53 am 07:53 Sunny 31 -0.6 21 -6.1 67 67 W 3 6 30.15 1021 10 16 N/A
8:53 am 08:53 Sunny 42 5.6 22 -5.6 45 45 SSW 6 9 30.13 1020 10 16 N/A
9:53 am 09:53 Sunny 45 7.2 20 -6.7 37 37 SW 6 9 30.11 1020 10 16 N/A
10:53 am 10:53 Sunny 49 9.4 20 -6.7 32 32 SSW 7 11 30.09 1019 10 16 N/A
11:53 am 11:53 Sunny 53 11.7 20 -6.7 27 27 S 13 20 30.07 1018 10 16 N/A
12:53 pm 12:53 Sunny 54 12.2 20 -6.7 26 26 SW 15 24 30.03 1017 10 16 N/A
1:53 pm 13:53 Sunny 58 14.4 24 -4.4 27 27 SW 15 24 29.99 1016 10 16 N/A
2:53 pm 14:53 Sunny 60 15.6 25 -3.9 26 26 SW 18 30 29.96 1014 10 16 N/A
3:53 pm 15:53 Sunny 58 14.4 25 -3.9 28 28 SW 12 19 29.95 1014 10 16 N/A
4:53 pm 16:53 Sunny 58 14.4 26 -3.3 29 29 SW 7 11 29.93 1013 10 16 N/A
5:53 pm 17:53 Sunny 59 15 28 -2.2 31 31 E 7 11 29.89 1012 10 16 N/A
6:53 pm 18:53 Sunny 58 14.4 28 -2.2 32 32 E 13 20 29.86 1011 10 16 N/A
7:53 pm 19:53 Sunny 55 12.8 28 -2.2 35 35 E 15 24 29.83 1010 10 16 N/A
8:53 pm 20:53 Clear 49 9.4 28 -2.2 44 44 NE 9 15 29.81 1010 10 16 N/A
9:53 pm 21:53 Clear 45 7.2 28 -2.2 52 52 ENE 10 17 29.80 1009 10 16 N/A
10:53 pm 22:53 Clear 45 7.2 27 -2.8 49 49 VRB 3 6 29.78 1008 10 16 N/A
11:53 pm 23:53 Clear 50 10 26 -3.3 39 39 ESE 6 9 29.73 1007 10 16 N/A

Powered by AerisWeather